Regional Weather Roundup
Issued by NWS

Home | Current Version | Previous Version | Graphics & Text | Print | Product List | Glossary Off
Versions: 1 2 3 4 5 6 7 8 9 10 11 12 13 14 15 16 17 18 19 20 21 22 23 24 25 26 27 28 29 30 31 32 33 34 35 36 37 38 39 40 41 42 43 44 45 46 47 48 49 50

012
ASUS43 KTOP 230708
RWRKS

WEATHER ROUNDUP FOR KANSAS
NATIONAL WEATHER SERVICE GOODLAND KS
100 AM CST MON JAN 23 2017

NOTE:  "FAIR" INDICATES FEW OR NO CLOUDS BELOW 12,000 FEET WITH NO
SIGNIFICANT WEATHER AND/OR OBSTRUCTIONS TO VISIBILITY.

KSZ001>006-013>018-027>032-041>047-230800-
NORTHWEST KANSAS

CITY           SKY/WX    TMP DP  RH WIND       PRES   REMARKS
GOODLAND       PTCLDY    27  23  85 CALM      29.85F
HAYS           CLEAR     26  23  88 NW8       29.92F
HILL CITY      CLEAR     28  26  92 W8        29.91F
RUSSELL        CLEAR     27  23  85 S7        29.90F
$$

KSZ061>065-074>080-084>089-230800-
SOUTHWEST KANSAS

CITY           SKY/WX    TMP DP  RH WIND       PRES   REMARKS
DODGE CITY     CLEAR     28  24  85 SW8       29.92F
ELKHART          N/A     36  19  50 S10         N/A  WCI  28
GARDEN CITY    CLOUDY    27  23  85 SW6       29.90F
GREAT BEND     CLEAR     27  24  89 SW8       29.93F
LIBERAL          N/A     28  21  74 SW3       29.93F
PRATT          CLEAR     27  23  85 W6        29.94F
$$

KSZ066>073-081>083-090>101-230800-
SOUTHEAST KANSAS

CITY           SKY/WX    TMP DP  RH WIND       PRES   REMARKS
CHANUTE        CLEAR     32  29  88 CALM      29.93S
COFFEYVILLE    CLEAR     34  31  88 NW9       29.95R
HUTCHINSON     CLEAR     28  26  92 NW3       29.93F
MEDICINE LODGE   N/A     29  25  85 N5        29.94F
NEWTON         CLEAR     29  29 100 W3        29.93S
PARSONS        CLEAR     31  29  92 CALM      29.95R
WICHITA INTL   CLEAR     30  29  96 CALM      29.93F
WICHITA JABRA  CLEAR     33  31  92 W5        29.93F
WICHITA MCCONL CLEAR     33  30  86 CALM      29.93F
WINFIELD       CLEAR     30  28  92 SW3       29.97R
$$

KSZ007>012-019>026-033>040-048>060-102>105-230800-
NORTHEAST KANSAS

CITY           SKY/WX    TMP DP  RH WIND       PRES   REMARKS
CONCORDIA      CLEAR     28  26  92 CALM      29.90F
EMPORIA        CLEAR     29  28  96 CALM      29.91F
LAWRENCE       CLEAR     31  30  96 NW3       29.92S
MANHATTAN      CLEAR     26  24  92 CALM      29.92F
MARYSVILLE     CLEAR     28  27  93 CALM      29.90S FOG
OLATHE IND     CLEAR     32  31  96 NW5       29.91S
OLATHE EXE     CLEAR     33  32  96 NW5       29.90S
SALINA           N/A    N/A N/A N/A MISG        N/A
TOPEKA BILLARD CLEAR     29  26  89 CALM      29.92F FOG
TOPEKA FORBES  CLEAR     30  28  92 N3        29.90F
$$




USA.gov is the U.S. government's official web portal to all federal, state and local government web resources and services.